Location: *
(50.9167°S, 179.4000°W)
Time: 21:56:36
(UTC+00:00)

Meteor 1-24 Rocket - Pass Details

Date: 03 March 2024
Orbit: 790 x 926 km, 81.2° (Epoch: 16 April)

Event Time Altitude Azimuth Distance (km) Brightness Sun altitude
Exits shadow 12:50:03 51° 108° (ESE) 1,153 4.4 -31.9°
Drops below altitude 10° 12:55:20 10° 160° (SSE) 2,664 7.1 -31.7°
Sets 12:57:54 0° 164° (SSE) 3,617 8.1 -31.6°
